Time,TemperatureF,DewpointF,PressureIn,WindDirection,WindDirectionDegrees,WindSpeedMPH,WindSpeedGustMPH,Humidity,HourlyPrecipIn,Conditions,Clouds,dailyrainin,SoftwareType,DateUTC
2013-07-24 00:01:00,78.0,49.0,29.82,NE,53,8.0,13.0,36,0.00,,,0.00,,2013-07-24 06:01:00,
2013-07-24 00:24:00,78.0,49.0,29.83,NE,40,7.0,15.0,36,0.00,,,0.00,,2013-07-24 06:24:00,
2013-07-24 00:34:00,77.0,48.0,29.83,NNE,27,6.0,12.0,36,0.00,,,0.00,,2013-07-24 06:34:00,
2013-07-24 00:43:00,77.0,49.0,29.83,NE,36,6.0,11.0,37,0.00,,,0.00,,2013-07-24 06:43:00,
2013-07-24 00:53:00,77.0,49.0,29.83,NE,36,6.0,11.0,37,0.00,,,0.00,,2013-07-24 06:53:00,
2013-07-24 01:02:00,77.0,49.0,29.83,NE,40,0.0,8.0,37,0.00,,,0.00,,2013-07-24 07:02:00,
2013-07-24 01:12:00,76.0,49.0,29.84,NNE,24,3.0,6.0,38,0.00,,,0.00,,2013-07-24 07:12:00,
2013-07-24 01:22:00,76.0,49.0,29.84,NNE,24,3.0,6.0,38,0.00,,,0.00,,2013-07-24 07:22:00,
2013-07-24 01:32:00,74.0,47.0,29.84,NNW,339,0.0,6.0,39,0.00,,,0.00,,2013-07-24 07:32:00,
2013-07-24 01:52:00,74.0,49.0,29.84,NNW,339,1.0,4.0,41,0.00,,,0.00,,2013-07-24 07:52:00,
2013-07-24 02:02:00,71.0,49.0,29.85,NNW,339,3.0,6.0,45,0.00,,,0.00,,2013-07-24 08:02:00,
2013-07-24 02:12:00,69.0,48.0,29.84,NNW,339,2.0,7.0,47,0.00,,,0.00,,2013-07-24 08:12:00,
2013-07-24 02:22:00,69.0,48.0,29.84,NNW,339,2.0,7.0,47,0.00,,,0.00,,2013-07-24 08:22:00,
2013-07-24 02:32:00,69.0,48.0,29.84,NNW,339,0.0,5.0,48,0.00,,,0.00,,2013-07-24 08:32:00,
2013-07-24 02:42:00,69.0,49.0,29.85,NNW,339,1.0,4.0,49,0.00,,,0.00,,2013-07-24 08:42:00,
2013-07-24 02:52:00,69.0,49.0,29.85,NNW,339,1.0,4.0,49,0.00,,,0.00,,2013-07-24 08:52:00,
2013-07-24 03:02:00,68.0,49.0,29.84,NNW,339,3.0,5.0,50,0.00,,,0.00,,2013-07-24 09:02:00,
2013-07-24 03:12:00,68.0,50.0,29.85,NNW,339,1.0,6.0,53,0.00,,,0.00,,2013-07-24 09:12:00,
2013-07-24 03:22:00,68.0,50.0,29.85,NNW,339,1.0,6.0,53,0.00,,,0.00,,2013-07-24 09:22:00,
2013-07-24 03:32:00,67.0,50.0,29.84,NNW,339,1.0,5.0,55,0.00,,,0.00,,2013-07-24 09:32:00,
2013-07-24 03:43:00,67.0,50.0,29.84,NNW,339,0.0,2.0,55,0.00,,,0.00,,2013-07-24 09:43:00,
2013-07-24 03:53:00,67.0,50.0,29.84,NNW,339,0.0,2.0,55,0.00,,,0.00,,2013-07-24 09:53:00,
2013-07-24 04:02:00,66.0,49.0,29.84,NNW,339,1.0,3.0,55,0.00,,,0.00,,2013-07-24 10:02:00,
2013-07-24 04:12:00,66.0,50.0,29.84,NNW,339,1.0,5.0,57,0.00,,,0.00,,2013-07-24 10:12:00,
2013-07-24 04:22:00,66.0,50.0,29.84,NNW,339,1.0,5.0,57,0.00,,,0.00,,2013-07-24 10:22:00,
2013-07-24 04:33:00,65.0,50.0,29.84,NNW,339,1.0,5.0,58,0.00,,,0.00,,2013-07-24 10:33:00,
2013-07-24 04:43:00,64.0,50.0,29.84,NNW,339,0.0,5.0,60,0.00,,,0.00,,2013-07-24 10:43:00,
2013-07-24 04:53:00,64.0,50.0,29.84,NNW,339,0.0,5.0,60,0.00,,,0.00,,2013-07-24 10:53:00,
2013-07-24 05:02:00,63.0,50.0,29.85,NNW,339,5.0,8.0,63,0.00,,,0.00,,2013-07-24 11:02:00,
2013-07-24 05:12:00,62.0,50.0,29.85,NNW,339,2.0,4.0,64,0.00,,,0.00,,2013-07-24 11:12:00,
2013-07-24 05:22:00,62.0,50.0,29.85,NNW,339,2.0,4.0,64,0.00,,,0.00,,2013-07-24 11:22:00,
2013-07-24 05:32:00,62.0,50.0,29.85,NNW,339,3.0,7.0,65,0.00,,,0.00,,2013-07-24 11:32:00,
2013-07-24 05:43:00,62.0,51.0,29.86,NNW,339,0.0,6.0,67,0.00,,,0.00,,2013-07-24 11:43:00,
2013-07-24 05:52:00,62.0,51.0,29.86,NNW,339,0.0,6.0,67,0.00,,,0.00,,2013-07-24 11:52:00,
2013-07-24 06:02:00,62.0,51.0,29.86,NNW,339,0.0,2.0,68,0.00,,,0.00,,2013-07-24 12:02:00,
2013-07-24 06:12:00,61.0,51.0,29.86,NNW,339,0.0,2.0,69,0.00,,,0.00,,2013-07-24 12:12:00,
2013-07-24 06:22:00,61.0,51.0,29.86,NNW,339,0.0,2.0,69,0.00,,,0.00,,2013-07-24 12:22:00,
2013-07-24 06:32:00,61.0,51.0,29.86,NNW,339,0.0,0.0,70,0.00,,,0.00,,2013-07-24 12:32:00,
2013-07-24 06:52:00,61.0,52.0,29.86,NNW,339,0.0,2.0,71,0.00,,,0.00,,2013-07-24 12:52:00,
2013-07-24 07:02:00,61.0,52.0,29.86,NNW,339,0.0,2.0,71,0.00,,,0.00,,2013-07-24 13:02:00,
2013-07-24 07:12:00,61.0,52.0,29.86,NNW,339,0.0,1.0,71,0.00,,,0.00,,2013-07-24 13:12:00,
2013-07-24 07:32:00,62.0,52.0,29.86,NNW,339,0.0,3.0,69,0.00,,,0.00,,2013-07-24 13:32:00,
2013-07-24 07:43:00,63.0,51.0,29.86,NNW,339,1.0,3.0,64,0.00,,,0.00,,2013-07-24 13:43:00,
2013-07-24 07:53:00,63.0,51.0,29.86,NNW,339,1.0,3.0,64,0.00,,,0.00,,2013-07-24 13:53:00,
2013-07-24 08:02:00,64.0,51.0,29.86,NNW,339,0.0,3.0,62,0.00,,,0.00,,2013-07-24 14:02:00,
2013-07-24 08:12:00,66.0,52.0,29.87,NNW,339,0.0,3.0,60,0.00,,,0.00,,2013-07-24 14:12:00,
2013-07-24 08:22:00,66.0,52.0,29.87,NNW,339,0.0,3.0,60,0.00,,,0.00,,2013-07-24 14:22:00,
2013-07-24 08:32:00,68.0,53.0,29.87,NNW,339,1.0,4.0,58,0.00,,,0.00,,2013-07-24 14:32:00,
2013-07-24 08:43:00,68.0,53.0,29.87,NNW,339,0.0,4.0,58,0.00,,,0.00,,2013-07-24 14:43:00,
2013-07-24 08:55:00,68.0,53.0,29.87,NNW,339,0.0,4.0,58,0.00,,,0.00,,2013-07-24 14:55:00,
2013-07-24 09:02:00,70.0,53.0,29.86,NNW,339,0.0,2.0,54,0.00,,,0.00,,2013-07-24 15:02:00,
2013-07-24 09:22:00,73.0,53.0,29.86,NNW,339,0.0,1.0,50,0.00,,,0.00,,2013-07-24 15:22:00,
2013-07-24 09:32:00,75.0,53.0,29.86,NNW,339,0.0,3.0,46,0.00,,,0.00,,2013-07-24 15:32:00,
2013-07-24 09:43:00,76.0,52.0,29.86,NNW,339,0.0,1.0,43,0.00,,,0.00,,2013-07-24 15:43:00,
2013-07-24 09:52:00,76.0,52.0,29.86,NNW,339,0.0,1.0,43,0.00,,,0.00,,2013-07-24 15:52:00,
2013-07-24 10:02:00,78.0,52.0,29.85,NNW,339,0.0,3.0,41,0.00,,,0.00,,2013-07-24 16:02:00,
2013-07-24 10:12:00,78.0,52.0,29.85,NNW,339,2.0,5.0,41,0.00,,,0.00,,2013-07-24 16:12:00,
2013-07-24 10:22:00,78.0,52.0,29.85,NNW,339,2.0,5.0,41,0.00,,,0.00,,2013-07-24 16:22:00,
2013-07-24 10:32:00,77.0,53.0,29.84,NNW,339,1.0,4.0,43,0.00,,,0.00,,2013-07-24 16:32:00,
2013-07-24 10:43:00,78.0,52.0,29.84,NNW,339,0.0,3.0,41,0.00,,,0.00,,2013-07-24 16:43:00,
2013-07-24 10:53:00,78.0,52.0,29.84,NNW,339,0.0,3.0,41,0.00,,,0.00,,2013-07-24 16:53:00,
2013-07-24 11:02:00,79.0,52.0,29.83,NNW,339,1.0,4.0,39,0.00,,,0.00,,2013-07-24 17:02:00,
2013-07-24 11:12:00,80.0,52.0,29.83,NNW,339,0.0,3.0,38,0.00,,,0.00,,2013-07-24 17:12:00,
2013-07-24 11:22:00,80.0,52.0,29.83,NNW,339,0.0,3.0,38,0.00,,,0.00,,2013-07-24 17:22:00,
2013-07-24 11:33:00,82.0,51.0,29.83,NNW,339,1.0,4.0,34,0.00,,,0.00,,2013-07-24 17:33:00,
2013-07-24 11:53:00,84.0,51.0,29.82,NNW,339,0.0,2.0,32,0.00,,,0.00,,2013-07-24 17:53:00,
2013-07-24 12:02:00,85.0,53.0,29.81,NNW,339,2.0,5.0,34,0.00,,,0.00,,2013-07-24 18:02:00,
2013-07-24 12:12:00,85.0,52.0,29.81,NNW,339,0.0,3.0,32,0.00,,,0.00,,2013-07-24 18:12:00,
2013-07-24 12:22:00,85.0,52.0,29.81,NNW,339,0.0,3.0,32,0.00,,,0.00,,2013-07-24 18:22:00,
2013-07-24 12:33:00,85.0,51.0,29.80,NNW,339,1.0,4.0,31,0.00,,,0.00,,2013-07-24 18:33:00,
2013-07-24 13:32:00,86.0,48.0,29.78,NNW,339,1.0,6.0,27,0.00,,,0.00,,2013-07-24 19:32:00,
2013-07-24 13:43:00,87.0,48.0,29.77,NNW,339,2.0,7.0,26,0.00,,,0.00,,2013-07-24 19:43:00,
2013-07-24 13:53:00,87.0,48.0,29.77,NNW,339,2.0,7.0,26,0.00,,,0.00,,2013-07-24 19:53:00,
2013-07-24 14:02:00,88.0,48.0,29.77,NNW,339,3.0,7.0,25,0.00,,,0.00,,2013-07-24 20:02:00,
2013-07-24 14:13:00,89.0,47.0,29.76,NNW,339,2.0,5.0,24,0.00,,,0.00,,2013-07-24 20:13:00,
2013-07-24 14:22:00,89.0,47.0,29.76,NNW,339,2.0,5.0,24,0.00,,,0.00,,2013-07-24 20:22:00,
2013-07-24 14:32:00,89.0,46.0,29.75,NNW,339,0.0,5.0,23,0.00,,,0.00,,2013-07-24 20:32:00,
2013-07-24 14:42:00,89.0,45.0,29.75,NNW,339,2.0,7.0,22,0.00,,,0.00,,2013-07-24 20:42:00,
2013-07-24 14:52:00,89.0,45.0,29.75,NNW,339,2.0,7.0,22,0.00,,,0.00,,2013-07-24 20:52:00,
2013-07-24 15:02:00,89.0,45.0,29.75,NNW,339,2.0,7.0,22,0.00,,,0.00,,2013-07-24 21:02:00,
2013-07-24 15:12:00,92.0,46.0,29.73,NNW,339,1.0,5.0,21,0.00,,,0.00,,2013-07-24 21:12:00,
2013-07-24 15:22:00,92.0,46.0,29.73,NNW,339,1.0,5.0,21,0.00,,,0.00,,2013-07-24 21:22:00,
2013-07-24 15:32:00,92.0,46.0,29.73,NNW,339,0.0,5.0,21,0.00,,,0.00,,2013-07-24 21:32:00,
2013-07-24 15:52:00,91.0,43.0,29.72,NNW,329,0.0,10.0,19,0.00,,,0.00,,2013-07-24 21:52:00,
2013-07-24 16:02:00,92.0,41.0,29.72,NW,321,1.0,7.0,17,0.00,,,0.00,,2013-07-24 22:02:00,
2013-07-24 16:12:00,91.0,42.0,29.71,NW,309,0.0,8.0,18,0.00,,,0.00,,2013-07-24 22:12:00,
2013-07-24 16:22:00,91.0,42.0,29.71,NW,309,0.0,8.0,18,0.00,,,0.00,,2013-07-24 22:22:00,
2013-07-24 16:32:00,91.0,43.0,29.71,NW,309,0.0,3.0,19,0.00,,,0.00,,2013-07-24 22:32:00,
2013-07-24 16:43:00,91.0,40.0,29.70,NW,309,0.0,3.0,17,0.00,,,0.00,,2013-07-24 22:43:00,
2013-07-24 16:53:00,91.0,40.0,29.70,NW,309,0.0,3.0,17,0.00,,,0.00,,2013-07-24 22:53:00,
2013-07-24 17:02:00,92.0,41.0,29.70,NW,309,1.0,6.0,17,0.00,,,0.00,,2013-07-24 23:02:00,
2013-07-24 17:12:00,92.0,39.0,29.70,NW,308,2.0,6.0,16,0.00,,,0.00,,2013-07-24 23:12:00,
2013-07-24 17:22:00,92.0,39.0,29.70,NW,308,2.0,6.0,16,0.00,,,0.00,,2013-07-24 23:22:00,
2013-07-24 17:32:00,93.0,38.0,29.69,NW,308,3.0,6.0,15,0.00,,,0.00,,2013-07-24 23:32:00,
2013-07-24 17:43:00,93.0,38.0,29.69,NW,308,3.0,6.0,15,0.00,,,0.00,,2013-07-24 23:43:00,
2013-07-24 17:52:00,92.0,36.0,29.68,NW,308,1.0,4.0,14,0.00,,,0.00,,2013-07-24 23:52:00,
2013-07-24 18:02:00,93.0,37.0,29.68,NW,308,0.0,3.0,14,0.00,,,0.00,,2013-07-25 00:02:00,
2013-07-24 18:12:00,93.0,37.0,29.68,NW,308,0.0,3.0,14,0.00,,,0.00,,2013-07-25 00:12:00,
2013-07-24 18:22:00,93.0,40.0,29.67,NW,308,0.0,4.0,16,0.00,,,0.00,,2013-07-25 00:22:00,
2013-07-24 18:33:00,92.0,42.0,29.67,NW,308,0.0,3.0,18,0.00,,,0.00,,2013-07-25 00:33:00,
2013-07-24 18:43:00,92.0,42.0,29.67,NW,308,0.0,3.0,18,0.00,,,0.00,,2013-07-25 00:43:00,
2013-07-24 18:53:00,91.0,44.0,29.67,NW,308,0.0,1.0,20,0.00,,,0.00,,2013-07-25 00:53:00,
2013-07-24 19:02:00,91.0,44.0,29.67,NW,308,0.0,1.0,20,0.00,,,0.00,,2013-07-25 01:02:00,
2013-07-24 19:12:00,91.0,44.0,29.67,NW,308,0.0,1.0,20,0.00,,,0.00,,2013-07-25 01:12:00,
2013-07-24 19:22:00,90.0,45.0,29.67,NW,308,0.0,1.0,21,0.00,,,0.00,,2013-07-25 01:22:00,
2013-07-24 19:32:00,89.0,51.0,29.67,NW,308,0.0,2.0,27,0.00,,,0.00,,2013-07-25 01:32:00,
2013-07-24 19:43:00,89.0,51.0,29.67,NW,308,0.0,2.0,27,0.00,,,0.00,,2013-07-25 01:43:00,
2013-07-24 19:53:00,88.0,50.0,29.67,NW,308,0.0,2.0,27,0.00,,,0.00,,2013-07-25 01:53:00,
2013-07-24 20:02:00,87.0,50.0,29.67,NW,308,1.0,3.0,28,0.00,,,0.00,,2013-07-25 02:02:00,
2013-07-24 20:12:00,87.0,50.0,29.67,NW,308,1.0,3.0,28,0.00,,,0.00,,2013-07-25 02:12:00,
2013-07-24 20:22:00,87.0,50.0,29.67,NW,308,1.0,3.0,28,0.00,,,0.00,,2013-07-25 02:22:00,
2013-07-24 20:33:00,84.0,53.0,29.67,NW,307,0.0,1.0,35,0.00,,,0.00,,2013-07-25 02:33:00,
2013-07-24 20:43:00,84.0,53.0,29.67,NW,307,0.0,1.0,35,0.00,,,0.00,,2013-07-25 02:43:00,
2013-07-24 20:53:00,83.0,55.0,29.67,NW,308,0.0,2.0,38,0.00,,,0.00,,2013-07-25 02:53:00,
2013-07-24 21:02:00,82.0,54.0,29.67,NW,307,0.0,5.0,38,0.00,,,0.00,,2013-07-25 03:02:00,
2013-07-24 21:14:00,82.0,54.0,29.67,NW,307,0.0,5.0,38,0.00,,,0.00,,2013-07-25 03:14:00,
2013-07-24 21:24:00,82.0,53.0,29.67,NW,307,0.0,3.0,37,0.00,,,0.00,,2013-07-25 03:24:00,
2013-07-24 21:35:00,82.0,51.0,29.67,NW,307,1.0,5.0,34,0.00,,,0.00,,2013-07-25 03:35:00,
2013-07-24 21:44:00,82.0,51.0,29.67,NW,307,1.0,5.0,34,0.00,,,0.00,,2013-07-25 03:44:00,
2013-07-24 21:52:00,80.0,51.0,29.67,NW,307,1.0,6.0,37,0.00,,,0.00,,2013-07-25 03:52:00,
2013-07-24 22:22:00,79.0,50.0,29.68,NW,307,0.0,5.0,36,0.00,,,0.00,,2013-07-25 04:22:00,
2013-07-24 22:32:00,78.0,47.0,29.68,NW,307,0.0,1.0,34,0.00,,,0.00,,2013-07-25 04:32:00,
2013-07-24 22:43:00,78.0,47.0,29.68,NW,307,0.0,1.0,34,0.00,,,0.00,,2013-07-25 04:43:00,
2013-07-24 22:53:00,78.0,48.0,29.68,NW,308,0.0,1.0,35,0.00,,,0.00,,2013-07-25 04:53:00,
2013-07-24 23:02:00,76.0,50.0,29.68,NW,308,0.0,2.0,40,0.00,,,0.00,,2013-07-25 05:02:00,
2013-07-24 23:12:00,76.0,50.0,29.68,NW,308,0.0,2.0,40,0.00,,,0.00,,2013-07-25 05:12:00,
2013-07-24 23:22:00,75.0,48.0,29.67,NW,308,1.0,4.0,39,0.00,,,0.00,,2013-07-25 05:22:00,
2013-07-24 23:32:00,75.0,48.0,29.67,NW,307,0.0,2.0,39,0.00,,,0.00,,2013-07-25 05:32:00,
2013-07-24 23:43:00,75.0,48.0,29.67,NW,307,0.0,2.0,39,0.00,,,0.00,,2013-07-25 05:43:00,
2013-07-24 23:52:00,74.0,49.0,29.67,NW,308,0.0,1.0,42,0.00,,,0.00,,2013-07-25 05:52:00,